Regional Weather Roundup
Issued by NWS

Home | Current Version | Previous Version | Graphics & Text | Print | Product List | Glossary Off
Versions: 1 2 3 4 5 6 7 8 9 10 11 12 13 14 15 16 17 18 19 20 21 22 23 24 25 26 27 28 29 30 31 32 33 34 35 36 37 38 39 40 41 42 43 44 45 46 47 48 49 50

000
ASUS43 KDTX 292010
RWRMI
MICHIGAN HOURLY REGIONAL WEATHER ROUNDUP
NATIONAL WEATHER SERVICE DETROIT/PONTIAC MI
400 PM EDT SUN MAR 29 2015

NOTE: "FAIR" INDICATES FEW OR NO CLOUDS BELOW 12,000 FEET WITH NO
SIGNIFICANT WEATHER AND/OR OBSTRUCTION TO VISIBILITY.

MIZ047>049-052>055-059>063-066>070-074>076-081>083-292100-
SOUTHEAST LOWER MICHIGAN

CITY           SKY/WX    TMP DP  RH WIND       PRES   REMARKS
ADRIAN         CLOUDY    43  18  36 SW25G31   29.94F
ALMA           CLOUDY    42  14  31 S20G28    29.79F
ANN ARBOR      CLOUDY    44  19  36 S23G33    29.91F
BAD AXE        CLOUDY    40  15  35 S26G35    29.81F
DETROIT CITY   PTSUNNY   43  18  36 S24G35    29.96F
DETROIT        CLOUDY    45  17  32 S25G33    29.96F
FLINT          CLOUDY    44  16  32 S23G32    29.85F
GROSSE ILE     PTSUNNY   39  27  60 S15G23    29.96F
HILLSDALE      CLOUDY    41  18  39 S18G31    29.88F
HOWELL         CLOUDY    42  16  34 S24G32    29.85F

CITY           SKY/WX    TMP DP  RH WIND       PRES   REMARKS
JACKSON        CLOUDY    41  17  38 S21G38    29.87F
LAMBERTVILLE   CLOUDY    45  18  33 S20G28    29.97F
LANSING        CLOUDY    43  13  29 S23G33    29.84F
LAPEER         NOT AVBL
MASON          CLOUDY    41  17  37 S16G28    29.85F
MONROE         CLOUDY    45  18  33 S17G31    29.95F
MT. CLEMENS    PTSUNNY   39  21  48 S25G33    29.91F
PONTIAC        CLOUDY    42  14  32 S24G33    29.87F
PORT HOPE        N/A     41  17  38 S15G22    29.80F
PORT HURON     CLOUDY    37  19  48 S25G37    29.94F
TRI CITIES     CLOUDY    44  13  28 S22G31    29.79F
YPSILANTI      CLOUDY    48  18  30 S25G31    29.93F
$$
MIZ043>046-050>051-056>058-064>065-071>073-077>080-292100-
SOUTHWEST LOWER MICHIGAN

CITY           SKY/WX    TMP DP  RH WIND       PRES   REMARKS
BATTLE CREEK   LGT RAIN  40  19  43 S22G31    29.87F
BENTON HARBOR  MIX PCPN  35  27  72 S17G29    29.83F
BIG RAPIDS     LGT SNOW  32  29  89 S8G22     29.77S
COLDWATER      LGT RAIN  39  19  45 S18G28    29.87F
HOLLAND        FLURRIES  35  28  75 S21G30    29.85S
GRAND RAPIDS   LGT SNOW  36  25  64 SW20G29   29.86R
KALAMAZOO      LGT RAIN  37  25  61 S15G25    29.89S
MARSHALL       CLOUDY    39  19  44 S15G30    29.86F
MUSKEGON       LGT SNOW  33  29  85 S23G38    29.83F FOG
$$
MIZ016>042-292100-
NORTHERN LOWER MICHIGAN

CITY           SKY/WX    TMP DP  RH WIND       PRES   REMARKS
ALPENA         CLOUDY    42  11  28 S23       29.69F
BEAVER ISLAND  LGT SNOW  32  31  95 S21G29    29.62F
BELLAIRE       LGT SNOW  33  30  91 S14G21    29.68F
CADILLAC       LGT SNOW  31  29  91 S14G29    29.70F VSB 1
CHARLEVOIX     LGT SNOW  33  31  94 S17G26    29.67F VSB 1
FRANKFORT      CLOUDY    35  28  75 S17G36    29.66F HAZE
GAYLORD        SNOW      30  29  96 S20G26    29.65F VSB 1/2
GRAYLING       LGT SNOW  33  24  70 S15G23    29.69F
HARBOR SPRINGS SNOW      32  30  93 S14G26    29.66F VSB 1/2
HOUGHTON LAKE  FLURRIES  36  20  52 SW21G35   29.72F
MANISTEE       CLOUDY    32  27  80 S14G31    29.70F
OSCODA         CLOUDY    42  16  35 S22G35    29.75F
PELLSTON       SNOW      33  30  88 S12G20    29.66F VSB 1/2
TRAVERSE CITY  LGT SNOW  33  29  85 S12G28    29.65F VSB 3/4
$$
MIZ007>008-015-292100-
EASTERN UPPER MICHIGAN

CITY           SKY/WX    TMP DP  RH WIND       PRES   REMARKS
KINROSS        CLOUDY    34  32  93 S9        29.63F VSB 1
MACKINAC ISLAN LGT SNOW  32  30  92 S12G20    29.64F
NEWBERRY       SNOW      31  30  96 S29G39    29.57F VSB 1/2
S. S. MARIE    SNOW      32  29  88 S14G25    29.63F VSB 1/2
$$
MIZ004>006-011>014-085-292100-
CENTRAL UPPER MICHIGAN

CITY           SKY/WX    TMP DP  RH WIND       PRES   REMARKS
MANISTIQUE     LGT SNOW  32  32  99 S18G29    29.57F
ESCANABA       CLOUDY    34  30  86 SW15G21   29.53F
MENOMINEE      CLOUDY    34  30  86 SW13G21   29.54F
SAWYER-GWINN   LGT SNOW  32  28  86 S14       29.47F
$$
MIZ001>003-009>011-084-292100-
WESTERN UPPER MICHIGAN

CITY           SKY/WX    TMP DP  RH WIND       PRES   REMARKS
IRON MOUNTAIN  LGT SNOW  33  30  88 S7        29.46F FOG
HOUGHTON       SNOW      34  31  88 W13       29.39F VSB 1/2
COPPER HARBOR    N/A     34  31  88 W8        29.40F
IRONWOOD       CLOUDY    34  32  93 W16       29.47R VSB 3/4
$$

ABBREVIATIONS USED IN REMARKS
   TC - TEMPERATURE IN CELSIUS
  WCI - WIND CHILL INDEX
   HX - HEAT INDEX
  VSB - VISIBILITY




USA.gov is the U.S. government's official web portal to all federal, state and local government web resources and services.